Content
SEND FEEDBACK

Daily
Averages
Monthly
Summary
United States of America

BOSTON, MASSACHUSETTS


Home > North America > United States > Massachusetts
Elevation: 4 feet     Latitude: 42 22N     Longitude: 071 02W

WEATHER
 
SELECT A DAY
Number of Records: 202,868;   Date Range: 1/1/95 - 8/28/14
 
SHARE

PRINT THIS DATA

[ ← Previous Day ]
WEATHER ALMANAC - JANUARY 31, 2013
[ Next Day → ]
[ °C ]   °F
Weather ElementAverageHighLow
Temperature47.9 °F59 °F (3:54 am)32 °F (11:54 pm)
Dewpoint37.2 °F57 °F (6:54 am)12.9 °F (8:54 pm)
Humidity69.5 %94 % (5:44 am)37 % (2:54 pm)
Barometer29.24 in29.59 in (11:54 pm)28.99 in (8:54 am)
Wind Speed27.4 mph42.6 mph (9:54 am)
Wind Gust58.7 mph (4:54 am)
Weather ElementAverage
Visibility7.5 mi
Wind DirectionWSW (248.7 °)

Weather ElementTotal
Precipitation0.48 in
Heating Degree Days19.5 (Base 65)
Averaged from 31 records on January 31, 2013
WEATHER CONDITIONS BREAKOUT
WIND DIRECTION BREAKOUT
WEATHER BY HOUR - JANUARY 31, 2013
[ °C ]   °F
Local TimeTemperatureDewpointHumidityBarometerVisibilityWind DirectionWind SpeedGust SpeedPrecipitationEventsConditions
12:54 AM57.0 °F54.0 °F89 %29.42 in7.0 miSSW (200°)25.3 mph35.7 mph0.00 inRainLight Rain
1:54 AM57.0 °F55.0 °F93 %29.37 in7.0 miSSW (200°)28.8 mph40.3 mph0.00 inRainLight Rain
2:54 AM57.9 °F55.0 °F90 %29.28 in5.0 miSSW (200°)32.2 mph49.5 mph0.00 inRainLight Rain
3:54 AM59.0 °F55.0 °F87 %29.20 in7.0 miSSW (200°)35.7 mph49.5 mph0.00 inRainLight Rain
4:54 AM59.0 °F55.9 °F90 %29.14 in6.0 miSSW (200°)36.8 mph58.7 mph0.00 inRainLight Rain
5:44 AM57.2 °F55.4 °F94 %29.09 in2.5 miSouth (190°)38.0 mph55.2 mph0.10 inRainRain
5:54 AM57.9 °F55.9 °F93 %29.07 in2.5 miSouth (190°)32.2 mph50.6 mph0.11 inRainRain
6:01 AM59.0 °F55.4 °F88 %29.05 in4.0 miSouth (180°)38.0 mph50.6 mph0.01 inRainLight Rain
6:54 AM59.0 °F57.0 °F93 %29.05 in6.0 miSSW (210°)36.8 mph57.5 mph0.12 inRainLight Rain
7:21 AM57.2 °F55.4 °F94 %29.06 in10.0 miSSW (210°)24.2 mph35.7 mph0.02 inRainLight Rain
7:54 AM55.9 °F54.0 °F93 %29.03 in8.0 miSouth (190°)19.6 mph0.02 inRainLight Rain
8:54 AM55.0 °F52.0 °F89 %28.99 in8.0 miSSW (200°)26.5 mph33.4 mph0.03 inRainLight Rain
9:54 AM52.0 °F48.0 °F86 %29.08 in5.0 miWNW (300°)42.6 mph57.5 mph0.00 inRainLight Rain
9:57 AM46.4 °F42.8 °F87 %29.07 in2.0 miWNW (290°)28.8 mph57.5 mph0.00 inRainLight Rain
9:58 AM44.6 °F39.2 °F81 %29.07 in1.8 miWNW (290°)32.2 mph57.5 mph0.00 inRainHeavy Rain
10:06 AM44.6 °F39.2 °F81 %29.08 in3.0 miWest (280°)27.6 mph42.6 mph0.02 inRainLight Rain
10:13 AM44.6 °F39.2 °F81 %29.09 in8.0 miWNW (290°)17.3 mph42.6 mph0.02 inRainLight Rain
10:54 AM45.0 °F37.9 °F76 %29.12 in10.0 miWest (280°)29.9 mph38.0 mph0.03 inScattered Clouds
11:54 AM46.0 °F35.1 °F66 %29.17 in10.0 miWest (270°)29.9 mph36.8 mphScattered Clouds
12:54 PM45.0 °F30.0 °F56 %29.20 in10.0 miWest (280°)28.8 mph35.7 mphMostly Cloudy
1:54 PM46.0 °F24.1 °F42 %29.23 in10.0 miWest (280°)28.8 mph41.4 mphMostly Cloudy
2:54 PM45.0 °F19.9 °F37 %29.29 in10.0 miWest (280°)27.6 mph42.6 mphScattered Clouds
3:54 PM43.0 °F18.0 °F37 %29.33 in10.0 miWest (280°)18.4 mph39.1 mphPartly Cloudy
4:54 PM41.0 °F18.0 °F40 %29.37 in10.0 miWNW (290°)18.4 mph25.3 mphScattered Clouds
5:54 PM39.9 °F17.1 °F40 %29.42 in10.0 miWest (270°)20.7 mph44.9 mphScattered Clouds
6:54 PM37.9 °F16.0 °F41 %29.46 in10.0 miWest (280°)29.9 mph39.1 mphMostly Cloudy
7:54 PM37.0 °F14.0 °F39 %29.49 in10.0 miWest (280°)19.6 mph36.8 mphPartly Cloudy
8:54 PM36.0 °F12.9 °F39 %29.52 in10.0 miWest (270°)21.9 mph35.7 mphMostly Cloudy
9:54 PM35.1 °F14.0 °F42 %29.55 in10.0 miWest (270°)17.3 mph28.8 mphOvercast
10:54 PM33.1 °F12.9 °F43 %29.58 in10.0 miWNW (290°)21.9 mph32.2 mphMostly Cloudy
11:54 PM32.0 °F14.0 °F48 %29.59 in10.0 miWest (270°)15.0 mph27.6 mphPartly Cloudy
Hourly data recorded from KBOS, located miles away from Boston, Massachusetts







STORIES FROM OUR PARTNERS